Regional Weather Roundup
Issued by NWS Little Rock, AR

Home | Current Version | Previous Version | Text Only | Print | Product List | Glossary Off
Versions: 1 2 3 4 5 6 7 8 9 10 11 12 13 14 15 16 17 18 19 20 21 22 23 24 25 26 27 28 29 30 31 32 33

000
ASUS44 KLZK 191005
RWRLZK

WEATHER ROUNDUP FOR ARKANSAS
NATIONAL WEATHER SERVICE LITTLE ROCK AR
400 AM CST SUN NOV 19 2017

NOTE: "FAIR" INDICATES FEW OR NO CLOUDS BELOW 12,000 FEET WITH NO
SIGNIFICANT WEATHER AND/OR OBSTRUCTIONS TO VISIBILITY.

ARZ001-003-010-029-191100-
NORTHWEST ARKANSAS

CITY           SKY/WX    TMP DP  RH WIND       PRES   REMARKS
FAYETTEVILLE   CLEAR     29  29 100 CALM      30.24R
FORT SMITH     CLEAR     35  33  92 W8        30.26R WCI  29
HARRISON       CLEAR     35  28  75 W5        30.20S WCI  31
BENTONVILLE    CLEAR     35  28  75 CALM      30.26R
ROGERS         CLEAR     35  29  78 W3        30.24R
SILOAM SPGS    CLEAR     34  28  79 NW6       30.25S WCI  29
HIGHFILL       CLEAR     35  29  78 NW5       30.24S WCI  31
$$

ARZ004-005-016-191100-
NORTH CENTRAL ARKANSAS

CITY           SKY/WX    TMP DP  RH WIND       PRES   REMARKS
BATESVILLE     CLEAR     42  28  57 NW8       30.19R
FLIPPIN        CLEAR     40  28  62 NW6       30.21S
MTN HOME       CLEAR     38  30  73 N3        30.18S
$$

ARZ040-041-191100-
WEST CENTRAL ARKANSAS

CITY           SKY/WX    TMP DP  RH WIND       PRES   REMARKS
MENA           PTCLDY    41  32  70 CALM      30.23F
MOUNT IDA      CLEAR     34  32  92 CALM      30.20R
$$

ARZ009-017-025-026-028-191100-
NORTHEAST ARKANSAS

CITY           SKY/WX    TMP DP  RH WIND       PRES   REMARKS
JONESBORO      CLEAR     41  32  70 NW6       30.16R
NEWPORT        CLEAR     40  25  55 NW8       30.18S
WALNUT RIDGE     N/A     38  31  76 NW8       30.17R
BLYTHEVILLE    CLEAR     39  34  82 NW9       30.14R
$$

ARZ022-023-033-042-044-191100-
CENTRAL ARKANSAS

CITY           SKY/WX    TMP DP  RH WIND       PRES   REMARKS
LITTLE ROCK    PTCLDY    37  34  89 W3        30.22S
N LITTLE ROCK    N/A     41  34  75 W3        30.22S
JACKSONVILLE   PTCLDY    33  30  88 W5        30.20S WCI  29
SEARCY         PTCLDY    36  32  85 W3        30.20S
HOT SPRINGS    CLEAR     37  34  89 CALM      30.23S
RUSSELLVILLE   CLEAR     33  32  96 CALM      30.22S
CLINTON        FAIR      41  28  60 VRB5      30.21R
$$

ARZ036-191100-
EAST ARKANSAS

CITY           SKY/WX    TMP DP  RH WIND       PRES   REMARKS
WEST MEMPHIS   PTCLDY    41  34  76 NW7       30.15R
$$

ARZ050-053-066-070-073-191100-
SOUTHWEST ARKANSAS

CITY           SKY/WX    TMP DP  RH WIND       PRES   REMARKS
ARKADELPHIA    FAIR      35  33  92 CALM      30.25S
CAMDEN         CLEAR     34  32  93 CALM      30.24R
TEXARKANA      CLEAR     41  34  76 NW6       30.26R
EL DORADO      CLEAR     41  35  79 NW7       30.24R
DE QUEEN       PTCLDY    31  31 100 CALM      30.25S FOG
$$

ARZ056-057-069-191100-
SOUTHEAST ARKANSAS

CITY           SKY/WX    TMP DP  RH WIND       PRES   REMARKS
PINE BLUFF     PTCLDY    40  32  73 W6        30.22S
STUTTGART      PTCLDY    40  34  79 W9        30.20F
MONTICELLO     CLEAR     43  32  65 NW5       30.20S

$$






USA.gov is the U.S. government's official web portal to all federal, state and local government web resources and services.